Location: Newark
(34.1333°N, 7.9667°W)
Time: 03:03:40
(UTC+00:00)

UKube-1 - Pass Details

Date: 12 June 2023
Orbit: 598 x 602 km, 98.3° (Epoch: 28 September)

Event Time Altitude Azimuth Distance (km) Brightness Sun altitude
Rises 23:04:08 0° 31° (NNE) 2,851 ? -29.0°
Reaches altitude 10° 23:06:50 10° 49° (NE) 1,942 ? -29.2°
Enters shadow 23:06:59 11° 50° (NE) 1,900 ? -29.2°
